Regional Weather Roundup
Issued by NWS Green Bay, WI

Home | Current Version | Previous Version | Graphics & Text | Print | Product List | Glossary Off
Versions: 1 2 3 4 5 6 7 8 9 10 11 12 13 14 15 16 17 18 19 20 21 22 23 24 25 26 27 28 29 30 31 32 33 34 35 36 37 38 39 40 41 42 43 44 45 46 47 48 49 50

000
ASUS43 KGRB 292100
RWRGRB

NORTH-CENTRAL AND NORTHEAST WISCONSIN REGIONAL WEATHER ROUNDUP
NATIONAL WEATHER SERVICE GREEN BAY WI
400 PM CDT FRI APR 29 2016

WIZ005-009-010>012-018-019-292200-
NORTH CENTRAL WISCONSIN

CITY           SKY/WX    TMP DP  RH WIND       PRES   REMARKS
IRONWOOD         N/A     48  30  49 N12       30.13F
MANITOWISH WTR NOT AVBL
ARBOR VITAE    NOT AVBL
EAGLE RIVER    NOT AVBL
LAND O LAKES   NOT AVBL
RHINELANDER    PTSUNNY   56  32  40 E9        30.11F
PHILLIPS       SUNNY     58  34  40 CALM      30.08F
ANTIGO         NOT AVBL
TOMAHAWK       NOT AVBL
MERRILL        NOT AVBL
$$

WIZ013-073-292200-
NORTHEAST WISCONSIN

CITY           SKY/WX    TMP DP  RH WIND       PRES   REMARKS
IRON MOUNTAIN  CLOUDY    57  24  28 MISG      30.09F
MARINETTE      SUNNY     52  27  37 E8        30.13F
$$

WIZ017-030-035>037-045-292200-
CENTRAL WISCONSIN

CITY           SKY/WX    TMP DP  RH WIND       PRES   REMARKS
MEDFORD        NOT AVBL
WAUSAU         CLOUDY    57  34  41 SE7       30.08F
MOSINEE        CLOUDY    54  34  47 VRB8      30.12S
MARSHFIELD     CLOUDY    55  37  50 CALM      30.11R
WISC RAPIDS    MOSUNNY   57  32  38 VRB5      30.12S
STEVENS POINT  NOT AVBL
WAUPACA        PTSUNNY   58  32  37 E7        30.12F
SHAWANO        CLOUDY    56  33  41 E7        30.12F
CLINTONVILLE   NOT AVBL
WAUTOMA        NOT AVBL
$$

WIZ038-039-048-051-292200-
FOX VALLEY

CITY           SKY/WX    TMP DP  RH WIND       PRES   REMARKS
NWS GREEN BAY  SUNNY     55  35  47 NE5       30.13F
APPLETON       PTSUNNY   54  30  40 NE6       30.10F
OSHKOSH        SUNNY     54  32  43 N9        30.11S
FOND DU LAC    SUNNY     56  33  42 N12       30.11R
$$

WIZ022-050-052-292200-
EAST CENTRAL WISCONSIN

CITY           SKY/WX    TMP DP  RH WIND       PRES   REMARKS
EPHRAIM        NOT AVBL
STURGEON BAY   SUNNY     52  28  40 N6        30.15F
MANITOWOC      NOT AVBL
SHEBOYGAN      SUNNY     52  29  41 NE14      30.13R
$$

LMZ563-521-522-541>543-292200-
LAKESHORE

STATION/POSITION TIME  TEMP    WIND        PRES    VSBY  WAVE
                       AIR SEA DIR/SP/G                  HT/PER
                 (UTC) (F)     (DEG/KT/KT) (MB)    (MI)  (FT/S)
SHEBOYGAN LKSHOR 2000   41      20/ 10/ 11 1020.7F
KEWAUNEE LKSHORE 2000   44      30/  7/  8 1020.5F
ALGOMA MARINA    2015           70/ 12/ 13   N/A
NORTHPORT PIER   2000   43     140/  2/  2 1021.3R
N MID LAKE BUOY  1950   41 39  360/  2/  2 1021.6R         1
CHAMBERS ISLAND  2000   47     330/  4/  4 1021.7S
MENOMINEE LKSHOR 2000   44      20/  5/  7 1020.0F
$$




USA.gov is the U.S. government's official web portal to all federal, state and local government web resources and services.